Zurück zum Katalog

COSMOS 1823 DEB

AktivLEO
NORAD 18910·DEBRIS·🇷🇺 Russia

Gestartet Feb 20, 1987 von Plesetsk Cosmodrome

Loading…

Nächste Überflüge (nächste 24 Stunden)

TLE

AktuellSource: Space-Track

Epoche: Sep 14, 2026, 06:14 UTC

1 18910U 87020AU  26257.26036322  .00000079  00000-0  64673-3 0  9997
2 18910  73.6765 185.5096 0015282 175.3649 337.9674 12.48761831761938

Verfolge COSMOS 1823 DEB in Echtzeit mit AllMySat

Download on the App Store